This is the latest recevied weather packets stored in our database for station/object CE3UOB-10. If no packets are shown the sender has not sent any weather packets the latest 10 day(s).
| Time | Temp. | Humidity | Pressure | Rain* | Wind** | Luminosity | Snow |
|---|---|---|---|---|---|---|---|
| 1778116431 | 11.67° C | 96% | 1000.4 hPa | - | - | - | - |
| 1778114643 | 11.67° C | 100% | 1000.4 hPa | - | - | - | - |
| 1778114630 | 11.67° C | 100% | 1000.4 hPa | - | - | - | - |
| 1778112829 | 13.33° C | 94% | 999.9 hPa | - | - | - | - |
| 1778111806 | 13.89° C | 99% | 1000 hPa | - | - | - | - |
| 1778110006 | 13.89° C | 100% | 999.6 hPa | - | - | - | - |
| 1778107400 | 14.44° C | 88% | 999.2 hPa | - | - | - | - |
| 1778105399 | 13.89° C | 89% | 998.8 hPa | - | - | - | - |
| 1778103576 | 13.89° C | 91% | 998.7 hPa | - | - | - | - |
| 1778098111 | 14.44° C | 95% | 997.3 hPa | - | - | - | - |
| 1778098098 | 14.44° C | 95% | 997.3 hPa | - | - | - | - |
| 1778096297 | 15° C | 93% | 997.7 hPa | - | - | - | - |
| 1778094497 | 15° C | 91% | 997.4 hPa | - | - | - | - |
| 1778092697 | 15° C | 90% | 997.2 hPa | - | - | - | - |
| 1778090897 | 15° C | 89% | 997.2 hPa | - | - | - | - |
| 1778089097 | 15° C | 89% | 997.4 hPa | - | - | - | - |
| 1778087297 | 14.44° C | 89% | 997.4 hPa | - | - | - | - |
| 1778085496 | 15° C | 85% | 997.3 hPa | - | - | - | - |
| 1778083704 | 14.44° C | 86% | 997 hPa | - | - | - | - |
| 1778083699 | 14.44° C | 86% | 997 hPa | - | - | - | - |
| 1778081904 | 14.44° C | 86% | 996.8 hPa | - | - | - | - |
| 1778081898 | 14.44° C | 86% | 996.8 hPa | - | - | - | - |
| 1778080104 | 14.44° C | 84% | 996.2 hPa | - | - | - | - |
| 1778080098 | 14.44° C | 84% | 996.2 hPa | - | - | - | - |
| 1778078304 | 15.56° C | 77% | 994.9 hPa | - | - | - | - |
* Rain since midnight (hover to see other rain measurements)
** Current wind speed in m/s (hover to see current wind gust speed)